Pampa, TX

9:05 PM CDT on August 16, 2017 (GMT -0500)
Perry Lefors

Weather History for KPPA - February, 2013

Change the Weather History Date:

Saturday, February 9, 2013

  Actual Average Record
Temperature  
Mean Temperature 46 °F -  
Max Temperature 57 °F 47 °F 73 °F (1976)
Min Temperature 35 °F 21 °F 0 °F (2011)
Degree Days  
Heating Degree Days 19    
Moisture  
Dew Point 25 °F    
Average Humidity 48    
Maximum Humidity 87    
Minimum Humidity 23    
Precipitation  
Precipitation 0.00 in - - ()
Sea Level Pressure  
Sea Level Pressure 29.75 in    
Wind  
Wind Speed 24 mph (South)    
Max Wind Speed 33 mph    
Max Gust Speed 44 mph    
Visibility 10 miles    
Events Thunderstorm    
Averages and records for this station are not official NWS values.
T = Trace of Precipitation, MM = Missing Value Source: NWS Daily Summary

Daily Weather History Graph

Daily Weather History Graph

Search for Another Location

Airport or City:

Trip Planner

Search our weather history database for the weather conditions in past years. The results will help you decide how hot, cold, wet, or windy it might be!

Date:

Astronomy

Feb. 09, 2013 Rise Set
Actual Time 7:36 AM CST 6:20 PM CST
Civil Twilight 7:10 AM CST 6:46 PM CST
Nautical Twilight 6:40 AM CST 7:16 PM CST
Astronomical Twilight 6:10 AM CST 7:46 PM CST
Moon 6:50 AM CST (2/9) 6:03 PM CST (2/9)
Length of Visible Light 11h 36m
Length of Day
10h 43m
Waning Crescent, 0% of the Moon is Illuminated
Feb 9
Waning Crescent
Feb 10
New
Feb 17
First Quarter
Feb 25
Full
Mar 4
Last Quarter

Hourly Weather History & Observations

Time (CST) Temp. Windchill Dew Point Humidity Pressure Visibility Wind Dir Wind Speed Gust Speed Precip Events Conditions
12:15 AM 37.4 °F 27.2 °F 14.0 °F 38% 29.99 in 10.0 mi SSE 19.6 mph - N/A   Clear
12:35 AM 37.4 °F 26.4 °F 14.0 °F 38% 29.97 in 10.0 mi SSE 23.0 mph - N/A   Clear
12:55 AM 39.2 °F 28.5 °F 15.8 °F 39% 29.97 in 10.0 mi SSE 24.2 mph 31.1 mph N/A   Clear
1:15 AM 37.4 °F 26.6 °F 17.6 °F 45% 29.96 in 10.0 mi SSE 21.9 mph 28.8 mph N/A   Clear
1:35 AM 39.2 °F 29.3 °F 15.8 °F 39% 29.96 in 10.0 mi SSE 20.7 mph 28.8 mph N/A   Clear
1:55 AM 39.2 °F 29.3 °F 14.0 °F 36% 29.95 in 10.0 mi SSE 20.7 mph - N/A   Clear
2:15 AM 37.4 °F 27.2 °F 14.0 °F 38% 29.95 in 10.0 mi South 19.6 mph 25.3 mph N/A   Clear
2:35 AM 37.4 °F 26.4 °F 14.0 °F 38% 29.94 in 10.0 mi South 23.0 mph 31.1 mph N/A   Clear
2:55 AM 37.4 °F 27.5 °F 14.0 °F 38% 29.94 in 10.0 mi SSE 18.4 mph 25.3 mph N/A   Clear
3:15 AM 37.4 °F 26.9 °F 14.0 °F 38% 29.92 in 10.0 mi SSE 20.7 mph 27.6 mph N/A   Clear
3:35 AM 37.4 °F 26.4 °F 14.0 °F 38% 29.91 in 10.0 mi SSE 23.0 mph 29.9 mph N/A   Clear
3:55 AM 37.4 °F 26.6 °F 15.8 °F 41% 29.90 in 10.0 mi South 21.9 mph 28.8 mph N/A   Clear
4:15 AM 35.6 °F 23.7 °F 15.8 °F 44% 29.89 in 10.0 mi South 24.2 mph 32.2 mph N/A   Clear
4:35 AM 35.6 °F 24.0 °F 15.8 °F 44% 29.89 in 10.0 mi SSE 23.0 mph 28.8 mph N/A   Clear
4:55 AM 35.6 °F 23.7 °F 17.6 °F 48% 29.87 in 10.0 mi SSE 24.2 mph 29.9 mph N/A   Clear
5:15 AM 37.4 °F 25.9 °F 17.6 °F 45% 29.87 in 10.0 mi South 25.3 mph 31.1 mph N/A   Clear
5:35 AM 37.4 °F 25.9 °F 17.6 °F 45% 29.86 in 10.0 mi SSE 25.3 mph 31.1 mph N/A   Clear
5:55 AM 37.4 °F 26.1 °F 17.6 °F 45% 29.86 in 10.0 mi South 24.2 mph 29.9 mph N/A   Clear
6:15 AM 37.4 °F 26.4 °F 17.6 °F 45% 29.85 in 10.0 mi South 23.0 mph 29.9 mph N/A   Clear
6:35 AM 37.4 °F 26.4 °F 19.4 °F 48% 29.85 in 10.0 mi SSE 23.0 mph 31.1 mph N/A   Clear
6:55 AM 37.4 °F 26.4 °F 19.4 °F 48% 29.85 in 10.0 mi South 23.0 mph 32.2 mph N/A   Clear
7:15 AM 37.4 °F 26.4 °F 19.4 °F 48% 29.84 in 10.0 mi SSE 23.0 mph 31.1 mph N/A   Clear
7:35 AM 35.6 °F 23.4 °F 19.4 °F 52% 29.84 in 10.0 mi SSE 25.3 mph 29.9 mph N/A   Clear
7:55 AM 35.6 °F 23.2 °F 21.2 °F 56% 29.84 in 10.0 mi SSE 26.5 mph 29.9 mph N/A   Clear
8:15 AM 37.4 °F 26.1 °F 21.2 °F 52% 29.84 in 10.0 mi SSE 24.2 mph 33.4 mph N/A   Clear
8:35 AM 37.4 °F 26.1 °F 21.2 °F 52% 29.83 in 10.0 mi SSE 24.2 mph 33.4 mph N/A   Clear
8:55 AM 37.4 °F 25.0 °F 23.0 °F 56% 29.82 in 10.0 mi SSE 29.9 mph 34.5 mph N/A   Clear
9:15 AM 39.2 °F 27.6 °F 23.0 °F 52% 29.81 in 10.0 mi SSE 28.8 mph 34.5 mph N/A   Clear
9:35 AM 41.0 °F 30.7 °F 24.8 °F 53% 29.82 in 10.0 mi South 25.3 mph 35.7 mph N/A   Clear
9:55 AM 42.8 °F 32.7 °F 26.6 °F 53% 29.82 in 10.0 mi SSE 27.6 mph 35.7 mph N/A   Clear
10:15 AM 44.6 °F 35.9 °F 26.6 °F 49% 29.81 in 10.0 mi South 23.0 mph 38.0 mph N/A   Clear
10:35 AM 44.6 °F 34.7 °F 28.4 °F 53% 29.80 in 10.0 mi South 29.9 mph 34.5 mph N/A   Clear
10:55 AM 46.4 °F 37.4 °F 28.4 °F 50% 29.78 in 7.0 mi South 28.8 mph 43.7 mph N/A   Clear
11:15 AM 48.2 °F - 30.2 °F 50% 29.78 in 10.0 mi South 32.2 mph 40.3 mph N/A   Clear
11:35 AM 46.4 °F 37.2 °F 30.2 °F 53% 29.76 in 7.0 mi South 29.9 mph 38.0 mph N/A   Clear
11:55 AM 50.0 °F - 32.0 °F 50% 29.76 in 10.0 mi South 27.6 mph 38.0 mph N/A   Clear
12:15 PM 51.8 °F - 32.0 °F 47% 29.74 in 10.0 mi South 29.9 mph 36.8 mph N/A   Clear
12:35 PM 51.8 °F - 32.0 °F 47% 29.73 in 10.0 mi South 33.4 mph 39.1 mph N/A   Clear
12:55 PM 53.6 °F - 32.0 °F 44% 29.71 in 10.0 mi South 29.9 mph 38.0 mph N/A   Clear
1:15 PM 53.6 °F - 32.0 °F 44% 29.70 in 10.0 mi South 28.8 mph 39.1 mph N/A   Clear
1:35 PM 53.6 °F - 33.8 °F 47% 29.68 in 10.0 mi South 31.1 mph 39.1 mph N/A   Clear
1:55 PM 55.4 °F - 33.8 °F 44% 29.66 in 10.0 mi South 29.9 mph 39.1 mph N/A   Clear
2:15 PM 55.4 °F - 33.8 °F 44% 29.65 in 10.0 mi South 28.8 mph 36.8 mph N/A   Clear
2:35 PM 55.4 °F - 33.8 °F 44% 29.64 in 10.0 mi South 31.1 mph 38.0 mph N/A   Clear
2:55 PM 55.4 °F - 33.8 °F 44% 29.62 in 10.0 mi South 29.9 mph 38.0 mph N/A   Clear
3:15 PM 57.2 °F - 33.8 °F 41% 29.61 in 10.0 mi South 25.3 mph 36.8 mph N/A   Clear
3:35 PM 57.2 °F - 33.8 °F 41% 29.58 in 10.0 mi South 28.8 mph 35.7 mph N/A   Clear
3:55 PM 57.2 °F - 35.6 °F 44% 29.58 in 10.0 mi South 28.8 mph 40.3 mph N/A   Clear
4:15 PM 57.2 °F - 35.6 °F 44% 29.57 in 10.0 mi SSE 31.1 mph 39.1 mph N/A   Clear
4:35 PM 55.4 °F - 35.6 °F 47% 29.56 in 10.0 mi South 28.8 mph 36.8 mph N/A   Clear
4:55 PM 55.4 °F - 37.4 °F 51% 29.55 in 10.0 mi SSE 29.9 mph 39.1 mph N/A   Clear
5:15 PM 53.6 °F - 37.4 °F 54% 29.54 in 10.0 mi SSE 29.9 mph 38.0 mph N/A   Clear
5:35 PM 50.0 °F - 41.0 °F 71% 29.54 in 10.0 mi SE 26.5 mph 29.9 mph N/A   Scattered Clouds
5:55 PM 48.2 °F - 42.8 °F 82% 29.55 in 10.0 mi SE 24.2 mph 32.2 mph N/A   Mostly Cloudy
6:15 PM 48.2 °F - 42.8 °F 82% 29.55 in 7.0 mi SE 25.3 mph 33.4 mph N/A   Mostly Cloudy
6:35 PM 46.4 °F 38.1 °F 42.8 °F 87% 29.55 in 7.0 mi SSE 24.2 mph 31.1 mph N/A   Overcast
6:55 PM 46.4 °F 38.5 °F 42.8 °F 87% 29.57 in 7.0 mi SSE 21.9 mph 27.6 mph N/A   Overcast
7:15 PM 46.4 °F 38.1 °F 42.8 °F 87% 29.56 in 7.0 mi SSE 24.2 mph 31.1 mph N/A   Overcast
7:35 PM 48.2 °F - 44.6 °F 87% 29.60 in 7.0 mi South 23.0 mph 29.9 mph N/A   Overcast
7:55 PM 48.2 °F - 44.6 °F 87% 29.61 in 7.0 mi South 17.3 mph 27.6 mph N/A   Overcast
8:15 PM 48.2 °F - 44.6 °F 87% 29.62 in 7.0 mi SSW 13.8 mph - N/A Thunderstorm Overcast
8:35 PM 50.0 °F - 30.2 °F 47% 29.63 in 7.0 mi West 23.0 mph 29.9 mph N/A   Overcast
8:55 PM 50.0 °F - 21.2 °F 32% 29.64 in 10.0 mi West 20.7 mph 33.4 mph N/A   Overcast
9:15 PM 48.2 °F - 19.4 °F 32% 29.65 in 10.0 mi WSW 26.5 mph 31.1 mph N/A   Overcast
9:35 PM 46.4 °F 39.2 °F 17.6 °F 32% 29.64 in 10.0 mi West 18.4 mph 27.6 mph N/A   Overcast
9:55 PM 46.4 °F 37.7 °F 10.4 °F 23% 29.64 in 10.0 mi West 26.5 mph 35.7 mph N/A   Overcast
10:15 PM 44.6 °F 35.9 °F 12.2 °F 27% 29.65 in 10.0 mi West 23.0 mph 32.2 mph N/A   Overcast
10:35 PM 42.8 °F 34.5 °F 12.2 °F 29% 29.64 in 10.0 mi WSW 18.4 mph 25.3 mph N/A   Mostly Cloudy
10:55 PM 41.0 °F 32.8 °F 10.4 °F 29% 29.65 in 10.0 mi WSW 16.1 mph - N/A   Clear
11:15 PM 41.0 °F 33.1 °F 8.6 °F 26% 29.65 in 10.0 mi WSW 15.0 mph - N/A   Clear
11:35 PM 41.0 °F 32.5 °F 8.6 °F 26% 29.64 in 10.0 mi WSW 17.3 mph 25.3 mph N/A   Clear
11:55 PM 39.2 °F 30.2 °F 8.6 °F 28% 29.64 in 10.0 mi WSW 17.3 mph - N/A   Clear